STARLINK-1341, 45534

Orbit data source: Space-Track

STARLINK-1341, 45534 is a payload satellite owned by SpaceX/Seattle (US) in LEO that was launched on Wed, 22 Apr 2020 UTC via an FALCON 9 launch vehicle from the Air Force Eastern Test Range (AFETR). Payloads include a variety of satellites, spacecraft, and rockets equipped with specific instruments for various scientific and technological missions. These include communications satellites like Starlink; space stations such as the ISS; scientific satellites like the Hubble; Earth observation satellites from companies like Planet Labs, Umbra, and HawkEye 360; GPS; miniature CubeSats for education and research; and military/defense satellites.

Loading next visibility...
STARLINK-1341 details
Identifier
45534, 2020-025D
Orbit
LEO
Last TLE update11 hours ago
Origin
Flag of USSpaceX/Seattle (US)
ManufacturerSpaceX/Seattle
MissionPartially operational Commercial Communications
Bus & MotorSTARLINK, Unknown motor
Mass260 kg wet, ~248 kg dry
Launch date (UTC)
2020-04-22 (5 years ago)
Launch vehicle
FALCON 9
Launch site
Air Force Eastern Test Range (AFETR)
Object type
Payload
Rocket body
Debris
Shape & HBRBox + 1 Pan, 8.86 m
Radar Cross Section13.562 m², Large (>1 m²)

Expand to show TLE details & history

TLE from 11 hours ago
0 STARLINK-1341
1 45534U 19060A   24347.97398750  .00104920  00000-0  83076-3 0  9998
2 45534  53.0500 325.4175 0002227  98.2999 261.8271 15.70537831256541
Epoch: 2024-12-12T23:22Z
Definitive object data (Epoch: 2024-12-12T23:22:32.52Z)
Latitude0.00005°
Longitude-107.36459°
Altitude358.476 km
Speed7.695 km/s
True Right ascension21h 41m 40s
True Declination0° 00' 00"
Sunlit
Object was in daylight at TLE epoch
Visualization TLE readout
Latitude-3.60993°
Longitude-112.27034°
Altitude358.902 km
Speed7.695 km/s
Apparent Right ascension21h 01m 15s
Apparent Declination-21° 14' 31"
Sunlit
Object is in daylight
Visualization observer readout
Local Sidereal Time08:32:41
Azimuth339.834° N
Elevation-70.358°
Doppler factor1
Orbital elements
Apogee altitude359.138 km
Perigee altitude356.138 km
Semi-major axis6,735.775 km
Eccentricity0.0002227
Inclination53.05°
RAAN325.4175°
Arg. of periapsis98.2999°
True anomaly261.80184°
Mean anomaly261.8271°
Eccentric anomaly261.81447°
Mean motion3.9261 °/min
BSTAR0.00083076
Orbital period91.69 mins
Loading maneuver chart data...
Loading historical data...
Loading historical data...
Loading historical data...
Loading historical data...
Loading historical data...
Loading historical data...
Loading historical data...

STARLINK-1341 Visibility forecast

Observer location: undefined°, undefined

Span
Click to sort rows by Start time (UTC) header in descending order
Start Az.
Max El. time (UTC)
Max El. Az.
Max El.
End time (UTC)
End Az.
5 mins2024-12-14 01:31:49.336Z239.331° WSW2024-12-14 01:33:49.336Z274.9° WNW40.273°2024-12-14 01:36:49.336Z44.733° NE
4 mins2024-12-14 07:56:49.336Z315.776° NNW2024-12-14 07:58:49.336Z80.135° E43.155°2024-12-14 08:00:49.336Z123.697° SE
|